Theta_e
316 322 325 329 330 332 332 332 334 336 339 340 338 339 339 340 336 335 335 335 333 331 328 326 325 323 316
309 318 319 325 327 328 328 327 327 330 332 333 332 336 338 339 338 336 333 333 332 329 326 324 323 323 317
307 312 314 322 325 326 326 325 327 332 328 330 329 332 335 336 336 335 334 333 330 326 323 322 319 317 319
305 305 309 318 321 325 325 326 327 330 329 326 325 326 331 331 334 335 332 328 322 318 317 318 315 316 317
301 303 307 311 318 321 324 325 326 328 329 328 326 326 327 325 331 329 326 323 319 316 314 314 314 315 316
300 301 302 308 312 316 319 322 323 324 326 325 328 329 329 331 329 324 322 322 318 317 315 314 314 314 314
300 300 301 305 309 312 318 318 321 323 324 324 325 328 328 329 328 322 321 321 320 317 316 315 315 314 314
299 299 301 303 306 313 316 317 318 320 323 324 324 327 326 327 327 325 322 322 322 319 317 316 316 315 315
298 299 300 303 308 310 314 315 316 319 319 324 324 327 326 325 325 324 322 324 322 320 318 317 316 316 316
297 298 299 301 306 310 310 313 313 316 316 321 323 326 328 325 324 323 321 321 320 318 316 316 317 316 316
297 297 297 299 306 306 309 311 310 312 314 316 322 324 327 325 323 321 321 319 317 316 317 316 317 317 316
295 295 295 297 304 305 307 307 308 309 312 316 323 323 326 324 321 320 318 317 316 317 316 315 316 316 315
292 291 292 293 298 303 305 305 306 307 311 319 323 323 325 323 321 320 318 316 315 315 313 310 314 314 313
292 292 292 293 299 301 303 303 305 306 311 322 324 323 324 323 322 319 318 314 314 313 309 308 309 312 308
293 293 293 296 300 300 300 301 303 306 309 319 323 324 324 324 321 319 317 316 312 311 313 310 302 301 306
294 291 290 293 294 296 297 300 302 305 307 316 323 323 323 323 321 319 319 317 314 312 311 313 309 306 302
Wind_Speed
15 12 13 9 4 2 4 2 7 3 4 9 13 14 18 19 15 15 14 13 11 10 8 8 6 12 6
8 11 14 10 4 3 6 8 10 3 3 5 9 13 16 18 18 15 14 11 10 9 6 10 10 9 6
7 7 12 11 6 4 4 4 4 3 2 3 4 10 15 17 18 16 14 13 9 8 8 9 6 3 4
6 6 6 7 6 3 0 1 3 1 2 4 5 9 12 14 18 16 14 11 7 3 3 6 3 4 4
6 4 3 3 4 4 3 3 3 1 2 3 0 3 5 9 7 9 9 4 4 4 3 3 4 4 3
5 4 4 4 3 3 4 3 2 3 3 1 0 3 6 6 9 8 4 5 4 4 4 5 5 4 3
5 5 4 4 4 4 2 3 3 5 3 4 3 4 4 4 8 9 7 6 4 4 3 5 5 5 5
5 6 5 4 5 5 3 3 5 4 3 4 4 7 6 5 5 9 9 7 6 4 5 5 5 4 5
6 5 5 4 6 5 3 5 6 4 6 5 4 6 7 7 8 7 6 4 4 4 5 4 4 5 4
5 4 5 4 4 4 4 4 6 7 7 6 5 6 7 8 8 8 9 7 6 7 5 4 4 4 4
5 5 5 5 4 4 4 3 6 8 8 9 8 7 13 8 8 8 8 8 7 7 4 4 3 3 4
4 5 3 3 3 4 4 4 7 7 10 10 9 9 9 10 8 7 9 6 6 6 4 3 2 1 2
3 4 3 3 4 4 4 8 9 8 11 13 10 9 10 9 11 11 8 9 3 3 3 3 2 2 2
2 2 2 3 3 3 5 8 9 10 10 9 12 10 10 8 11 10 11 4 3 5 4 3 3 1 3
4 3 3 3 2 2 5 7 8 10 9 6 13 11 10 9 8 11 10 10 6 3 5 5 3 3 3
5 4 3 2 3 2 6 6 8 10 10 4 12 11 12 8 9 10 9 9 5 8 2 2 3 5 4
Wind_Direction
339 344 351 357 26 35 91 194 304 275 228 190 187 174 155 145 150 152 147 140 140 136 123 100 92 111 120
330 335 342 326 341 67 51 21 354 320 287 221 194 180 170 151 152 146 137 130 150 137 118 88 82 105 114
325 340 336 329 310 290 69 16 4 351 308 296 218 189 165 157 150 149 150 143 133 129 118 92 93 112 109
331 332 317 325 310 329 269 11 299 19 25 312 222 198 177 164 148 139 124 121 110 100 111 87 119 130 120
326 329 315 327 318 332 341 69 226 158 139 347 223 178 165 156 136 129 124 119 147 133 136 111 118 129 128
319 318 318 316 321 309 292 335 333 248 153 85 247 160 154 159 146 125 135 127 137 164 141 133 141 141 139
322 316 314 314 308 285 290 323 293 272 189 163 208 127 148 173 149 140 164 145 186 154 173 152 147 144 148
316 312 313 312 301 318 316 291 279 272 253 194 193 159 156 155 147 148 167 167 168 157 195 173 161 150 151
321 318 320 309 314 302 310 304 301 273 285 226 187 162 167 168 156 144 157 153 128 176 189 191 168 170 149
324 318 304 302 293 292 301 299 298 274 267 254 205 183 171 176 170 164 171 174 171 189 184 183 173 171 171
326 313 298 310 312 314 286 289 294 285 264 263 204 211 166 163 173 178 174 178 173 175 164 176 175 180 183
338 316 305 320 360 300 300 294 301 283 273 230 202 198 182 163 168 178 165 171 164 159 162 160 196 144 174
349 336 334 327 305 307 320 316 299 292 282 211 193 189 165 168 168 174 160 161 145 131 100 43 21 37 73
355 302 290 293 294 292 317 302 297 302 283 217 187 178 173 168 171 169 172 137 112 161 135 124 171 74 51
357 336 325 312 313 326 324 310 314 303 302 242 182 168 168 167 171 176 169 164 157 179 187 142 130 188 121
7 2 10 339 334 305 302 298 307 300 356 313 159 155 161 164 170 180 170 169 150 176 166 130 94 134 146